Location: Leganes-MADRID
(40.3441°N, 3.7527°W)
Time: 10:59:46
(UTC+02:00)

Hubble Space Telescope - Visible Passes

Search period start: 20 October 2017 00:00
Search period end: 29 October 2017 23:00
Orbit: 537 x 541 km, 28.5° (Epoch: 19 October)

Date Brightness Start Highest point End Pass type
(mag) Time Alt. Az. Time Alt. Az. Time Alt. Az.
21 Oct 3.4 21:33:14 10° SSW 21:33:35 11° SSW 21:33:35 11° SSW visible
22 Oct 3.1 21:22:39 10° SSW 21:24:01 13° S 21:24:01 13° S visible
23 Oct 2.9 21:12:09 10° SSW 21:14:25 15° S 21:14:25 15° S visible
24 Oct 2.9 21:01:46 10° SW 21:04:14 15° S 21:04:49 15° SSE visible
25 Oct 2.9 20:51:25 10° SW 20:53:56 16° S 20:55:12 14° SSE visible
26 Oct 3.0 20:41:09 10° SW 20:43:37 16° S 20:45:36 12° SSE visible
27 Oct 3.1 20:30:55 10° SW 20:33:19 15° S 20:35:43 10° SSE visible
28 Oct 3.2 20:20:45 10° SW 20:23:00 14° S 20:25:15 10° SSE visible
29 Oct 3.3 19:10:42 10° SW 19:12:41 13° S 19:14:40 10° SSE visible
